Location: Palomar Mountain Lodge
(33.3110°N, 116.8495°W)
Time: 10:30:01
(UTC-07:00)

Meteor 1-22 Rocket - Pass Details

Date: 14 June 2018
Orbit: 787 x 941 km, 81.2° (Epoch: 15 October)

Event Time Altitude Azimuth Distance (km) Brightness Sun altitude
Rises 20:29:13 0° 354° (N) 3,292 7.9 -6.4°
Reaches altitude 10° 20:31:35 10° 356° (N) 2,369 7.1 -6.8°
Maximum altitude 20:36:55 74° 81° (E) 846 4.1 -7.7°
Drops below altitude 10° 20:42:23 10° 167° (SSE) 2,433 6.2 -8.7°
Enters shadow 20:44:34 - 169° (SSE) 3,284 6.8 -9.0°
